Regional Weather Roundup
Issued by NWS

Home | Current Version | Previous Version | Text Only | Print | Product List | Glossary On
Versions: 1 2 3 4 5 6 7 8 9 10 11 12 13 14 15 16 17 18 19 20 21 22 23 24 25 26 27 28 29 30 31 32 33 34 35 36 37 38 39 40 41 42 43 44 45 46 47 48 49 50
150
ASUS44 KJAN 260910
RWRMS

MISSISSIPPI HOURLY WEATHER ROUNDUP
NATIONAL WEATHER SERVICE JACKSON MS
300 AM CST THU FEB 26 2015

NOTE: "FAIR: INDICATES FEW OR NO CLOUDS BELOW 12,000 FEET WITH NO
SIGNIFICANT WEATHER AND/OR OBSTRUCTIONS TO VISIBILITY.

MSZ001>002-007>008-010>013-018>021-025>028-034>036-261000-
NORTHWEST MISSISSIPPI

CITY           SKY/WX    TMP DP  RH WIND       PRES   REMARKS
CLARKSDALE     CLOUDY    30  30 100 CALM      29.94S VSB 1/4
CLEVELAND      CLOUDY    30  30 100 NW5       29.92S WCI  25
GREENWOOD      CLOUDY    32  31  96 N5        29.92S WCI  27
GREENVILLE     CLOUDY    32  30  92 N6        29.93R WCI  26
OLIVE BRANCH     N/A     23  23 100 CALM      29.92R VSB 0
OXFORD         FOG       27  27 100 CALM      29.91F VSB<1/4
TUNICA         FOG       23  23 100 CALM      29.95R VSB<1/4
$$

MSZ003>006-009-014>017-022>024-029>033-037>039-261000-
NORTHEAST MISSISSIPPI

CITY           SKY/WX    TMP DP  RH WIND       PRES   REMARKS
COLUMBUS AFB   CLOUDY    31  31  96 N7        29.87F WCI  25
CORINTH        CLOUDY    32  30  93 CALM      29.88F
GOLDN TRIANGLE CLOUDY    32  28  86 CALM      29.87F
STARKVILLE     CLOUDY    32  32 100 CALM      29.89F FOG
TUPELO         CLOUDY    32  29  88 N3        29.90S
$$

MSZ040-058-261000-
CENTRAL MISSISSIPPI

CITY           SKY/WX    TMP DP  RH WIND       PRES   REMARKS
JACKSON INTL   CLOUDY    33  31  92 NW9       29.91R WCI  25
JACKSON HAWKNS CLOUDY    33  30  88 N7        29.92R WCI  27
MERIDIAN KEY   CLOUDY    33  32  96 N10       29.88R WCI  25
MERIDIAN NAS   CLOUDY    33  31  92 N12G17    29.88R WCI  24
VICKSBURG      CLOUDY    33  31  92 NW5       29.95R WCI  29
$$

MSZ059>079-261000-
SOUTH MISSISSIPPI

CITY           SKY/WX    TMP DP  RH WIND       PRES   REMARKS
BROOKHAVEN     CLOUDY    34  34 100 NW6       29.93R WCI  29
HATTIESBURG    CLOUDY    36  34  92 NW7       29.91R FOG     WCI  30
MCCOMB         CLOUDY    34  32  92 NW5       29.91R WCI  30
NATCHEZ        CLOUDY    34  30  86 N6        29.95R WCI  29
PINE BELT      CLOUDY    36  30  80 NW6       29.89R WCI  31
$$

MSZ080>082-261000-
COASTAL MISSISSIPPI

CITY           SKY/WX    TMP DP  RH WIND       PRES   REMARKS
BILOXI         CLOUDY    39  36  91 N16G23    29.86S WCI  30
PASCAGOULA     CLOUDY    38  36  92 VRB6      29.86S WCI  33
GULFPORT       CLOUDY    38  35  89 NW12      29.87S WCI  30
$$



USA.gov is the U.S. government's official web portal to all federal, state and local government web resources and services.